Simultaneous Nadir Overpasses (SNOs) Predictions

Prediction of SNOs over PacNW region [( 10.00, 139.50) to ( 22.70, 165.60)] between AQUA and NPP Satellites:

Table of predicted SNOs over PacNW region for the next 30.0 days since TLE Epoch: 6/15/2012
Index Date (AQUA) Time (AQUA) AQUA Lat,Lon Date (NPP) Time (NPP) NPP Lat,Lon Distance(km) Time Diff (sec)
1 06/19/2012 15:59:27 22.60, 147.46 06/19/2012 16:00:00 23.24, 144.61 299.92 33
2 06/27/2012 15:10:26 20.30, 159.31 06/27/2012 15:09:47 20.81, 156.72 275.97 39
3 07/05/2012 15:58:57 22.60, 147.55 07/05/2012 15:59:41 23.27, 144.67 304.27 44




NCC Satellite Simultaneous Nadir Overpasses (SNOs) Prediction Service
